Find Local Weather

World > North America > United States > Montana

Thompson Falls, Montana Regional Weather

Lat: 47.60N, Lon: 115.34W
Wx Zone: MTZ004
Feedback
Expires:201811202000;;598955
ASUS45 KTFX 201910
RWRMT 
MONTANA REGIONAL WEATHER ROUNDUP
NATIONAL WEATHER SERVICE GREAT FALLS MT
1200 PM MST TUE NOV 20 2018

NOTE: "FAIR" INDICATES FEW OR NO CLOUDS BELOW 12000 FEET WITH NO
SIGNIFICANT WEATHER AND/OR OBSTRUCTIONS TO VISIBILITY.


MTZ001>007-043-202000-
WEST OF THE DIVIDE
  
CITY           SKY/WX    TMP DP  RH WIND       PRES   REMARKS
KALISPELL      FAIR      33  24  69 E3        30.20F                  
MISSOULA       FAIR      34  24  67 CALM      30.20F                  
BUTTE          FAIR      34  22  61 CALM      30.16F                  
MULLAN PASS    FAIR      40  23  50 S6        30.11F                  
ANACONDA         N/A     43  25  49 SE7       30.13F                  
DEER LODGE       N/A     34  25  69 NW7       30.17F WCI  28          
RONAN          FOG       28  28 100 SW6       30.20F VSB 1/2 WCI  22  
$$


SKY/WX - Weather  TMP - Temperature  DP - Dew Point  RH - Relative Humidity
WIND - Wind Direction/Speed PRES - Barometric Pressure